Portage, MI

2:40 AM EST on February 10, 2016 (GMT -0500)
Kalamazoo-Battle Creek International

Weather History for KAZO - January, 2014

Change the Weather History Date:

Monday, January 27, 2014

  Actual Average Record
Temperature  
Mean Temperature 8 °F 24 °F  
Max Temperature 22 °F 31 °F - ()
Min Temperature -6 °F 18 °F - ()
Degree Days  
Heating Degree Days 57 41  
Month to date heating degree days 1063 1099  
Since 1 July heating degree days 3570 3550  
Cooling Degree Days 0 0  
Month to date cooling degree days 0 0  
Year to date cooling degree days 0 0  
Moisture  
Dew Point 1 °F    
Average Humidity 80    
Maximum Humidity 91    
Minimum Humidity 69    
Precipitation  
Precipitation 0.02 in 0.06 in - ()
Month to date precipitation 1.10 1.57  
Year to date precipitation 1.10 1.57  
Sea Level Pressure  
Sea Level Pressure 30.02 in    
Wind  
Wind Speed 13 mph (WNW)    
Max Wind Speed 30 mph    
Max Gust Speed 39 mph    
Visibility 2 miles    
Events Fog , Snow    
T = Trace of Precipitation, MM = Missing Value Source: NWS Daily Summary

Daily Weather History Graph

Daily Weather History Graph

Search for Another Location

Airport or City:

Trip Planner

Search our weather history database for the weather conditions in past years. The results will help you decide how hot, cold, wet, or windy it might be!

Date:

Astronomy

Jan. 27, 2014 Rise Set
Actual Time 8:00 AM EST 5:50 PM EST
Civil Twilight 7:30 AM EST 6:20 PM EST
Nautical Twilight 6:56 AM EST 6:54 PM EST
Astronomical Twilight 6:23 AM EST 7:27 PM EST
Moon 4:41 AM EST (1/27) 2:34 PM EST (1/27)
Length of Visible Light 10h 50m
Length of Day
9h 49m
Waning Crescent, 15% of the Moon is Illuminated
Jan 27
Waning Crescent
Jan 30
New
Feb 6
First Quarter
Feb 14
Full
Feb 22
Last Quarter

Hourly Weather History & Observations

Time (EST) Temp. Windchill Dew Point Humidity Pressure Visibility Wind Dir Wind Speed Gust Speed Precip Events Conditions
12:31 AM 19.4 °F 2.5 °F 12.2 °F 74% 29.50 in 1.8 mi West 23.0 mph 35.7 mph 0.00 in Snow Light Snow
12:36 AM 19.4 °F 4.1 °F 15.8 °F 86% 29.51 in 0.8 mi West 18.4 mph 35.7 mph 0.00 in Snow Light Snow
12:46 AM 19.4 °F 1.8 °F 15.8 °F 86% 29.53 in 0.5 mi West 25.3 mph 32.2 mph 0.01 in Fog , Snow Snow
12:53 AM 19.0 °F 4.0 °F 15.1 °F 85% 29.59 in 0.2 mi WNW 17.3 mph 32.2 mph 0.01 in Fog , Snow Heavy Snow
12:59 AM 17.6 °F 3.2 °F 14.0 °F 86% 29.54 in 0.5 mi WNW 15.0 mph 24.2 mph 0.00 in Fog , Snow Snow
1:10 AM 17.6 °F 2.7 °F 14.0 °F 86% 29.55 in 0.2 mi WNW 16.1 mph 24.2 mph 0.01 in Fog , Snow Heavy Snow
1:37 AM 15.8 °F -3.4 °F 10.4 °F 79% 29.59 in 0.5 mi NW 26.5 mph 39.1 mph 0.01 in Fog , Snow Snow
1:53 AM 15.1 °F -3.3 °F 10.0 °F 80% 29.66 in 0.8 mi WNW 23.0 mph 32.2 mph 0.01 in Snow Light Snow
2:36 AM 12.2 °F -5.8 °F 8.6 °F 85% 29.66 in 1.2 mi WNW 19.6 mph 28.8 mph 0.00 in Snow Light Snow
2:42 AM 12.2 °F -6.7 °F 8.6 °F 85% 29.67 in 0.8 mi WNW 21.9 mph 31.1 mph 0.00 in Snow Light Snow
2:53 AM 12.0 °F -7.7 °F 8.1 °F 84% 29.74 in 0.8 mi WNW 24.2 mph 31.1 mph 0.00 in Snow Light Snow
3:36 AM 10.4 °F -7.2 °F 6.8 °F 85% 29.73 in 1.5 mi NW 17.3 mph 26.5 mph 0.00 in Snow Light Snow
3:53 AM 10.9 °F -5.9 °F 6.1 °F 81% 29.79 in 1.0 mi WNW 16.1 mph 31.1 mph 0.00 in Snow Light Snow
4:01 AM 10.4 °F -7.7 °F 6.8 °F 85% 29.76 in 1.5 mi WNW 18.4 mph 25.3 mph 0.00 in Snow Light Snow
4:21 AM 10.4 °F -7.2 °F 5.0 °F 79% 29.78 in 3.0 mi WNW 17.3 mph 26.5 mph 0.00 in Snow Light Snow
4:53 AM 10.9 °F -4.1 °F 5.0 °F 77% 29.85 in 2.5 mi West 12.7 mph 23.0 mph 0.00 in Snow Light Snow
5:07 AM 10.4 °F -7.7 °F 3.2 °F 73% 29.82 in 4.0 mi WNW 18.4 mph 21.9 mph 0.00 in Snow Light Snow
5:20 AM 10.4 °F -6.0 °F 3.2 °F 73% 29.83 in 2.0 mi WNW 15.0 mph - 0.00 in Snow Light Snow
5:30 AM 10.4 °F -5.4 °F 3.2 °F 73% 29.84 in 4.0 mi WNW 13.8 mph - 0.00 in Snow Light Snow
5:53 AM 10.0 °F -9.1 °F 3.0 °F 73% 29.91 in 4.0 mi WNW 20.7 mph 27.6 mph 0.00 in Snow Blowing Snow
6:25 AM 10.4 °F -9.1 °F 3.2 °F 73% 29.89 in 0.8 mi WNW 21.9 mph 28.8 mph 0.00 in Snow Light Snow
6:32 AM 10.4 °F -9.5 °F 3.2 °F 73% 29.89 in 0.8 mi WNW 23.0 mph 34.5 mph 0.00 in Snow Light Snow
6:53 AM 9.0 °F -8.5 °F 3.0 °F 77% 29.96 in 0.8 mi WNW 16.1 mph 24.2 mph 0.00 in Snow Light Snow
7:00 AM 8.6 °F -6.3 °F 3.2 °F 79% 29.92 in 1.8 mi WNW 11.5 mph 20.7 mph 0.00 in Snow Light Snow
7:06 AM 8.6 °F -7.7 °F 3.2 °F 79% 29.92 in 3.0 mi WNW 13.8 mph - 0.00 in Snow Light Snow
7:53 AM 8.1 °F -4.3 °F 3.0 °F 80% 30.01 in 2.0 mi WNW 8.1 mph - 0.00 in Snow Light Snow
8:53 AM 8.1 °F -7.0 °F 1.9 °F 76% 30.04 in 2.0 mi West 11.5 mph - 0.00 in Snow Light Snow
9:53 AM 8.1 °F -9.0 °F 1.0 °F 73% 30.08 in 2.0 mi WNW 15.0 mph 25.3 mph 0.00 in Snow Light Snow
10:00 AM 6.8 °F -9.3 °F 1.4 °F 79% 30.03 in 1.0 mi WNW 12.7 mph 21.9 mph 0.00 in Snow Light Snow
10:10 AM 6.8 °F -10.7 °F -0.4 °F 72% 30.04 in 2.0 mi WNW 15.0 mph 21.9 mph 0.00 in Snow Light Snow
10:53 AM 7.0 °F -10.4 °F -0.0 °F 73% 30.11 in 2.0 mi West 15.0 mph 23.0 mph 0.00 in Snow Light Snow
11:53 AM 7.0 °F -12.1 °F -2.0 °F 67% 30.13 in 2.5 mi WNW 18.4 mph 26.5 mph 0.00 in Snow Light Snow
12:17 PM 6.8 °F -13.4 °F -4.0 °F 61% 30.07 in 2.5 mi WNW 20.7 mph 28.8 mph 0.00 in Snow Light Snow
12:53 PM 6.1 °F -12.2 °F -0.0 °F 76% 30.14 in 2.0 mi West 16.1 mph 23.0 mph 0.00 in Snow Light Snow
1:53 PM 6.1 °F -12.2 °F -2.0 °F 69% 30.14 in 2.0 mi WNW 16.1 mph - 0.00 in Snow Light Snow
2:53 PM 3.9 °F -13.7 °F -2.9 °F 73% 30.17 in 2.0 mi WNW 13.8 mph 24.2 mph 0.00 in Snow Blowing Snow
2:55 PM 3.2 °F -15.3 °F -2.2 °F 78% 30.10 in 0.8 mi WNW 15.0 mph 24.2 mph N/A Snow Blowing Snow
3:03 PM 3.2 °F -13.1 °F -2.2 °F 78% 30.11 in 2.0 mi WNW 11.5 mph 20.7 mph 0.00 in Snow Light Snow
3:16 PM 3.2 °F -16.5 °F -2.2 °F 78% 30.11 in 1.2 mi West 17.3 mph 23.0 mph 0.00 in Snow Light Snow
3:30 PM 3.2 °F -13.9 °F -0.4 °F 85% 30.12 in 0.5 mi WNW 12.7 mph - 0.00 in Snow Snow
3:38 PM 3.2 °F -14.6 °F -0.4 °F 85% 30.12 in 0.2 mi WNW 13.8 mph - 0.00 in Snow Heavy Snow
3:48 PM 3.2 °F -15.9 °F -2.2 °F 78% 30.13 in 0.5 mi WNW 16.1 mph 21.9 mph 0.00 in Snow Snow
3:53 PM 3.9 °F -13.7 °F -2.0 °F 76% 30.20 in 0.2 mi WNW 13.8 mph 21.9 mph 0.00 in Snow Heavy Snow
4:02 PM 3.2 °F -17.1 °F -2.2 °F 78% 30.14 in 0.5 mi West 18.4 mph 25.3 mph 0.00 in Snow Snow
4:12 PM 3.2 °F -17.6 °F -4.0 °F 72% 30.14 in 0.8 mi West 19.6 mph 24.2 mph 0.00 in Snow Light Snow
4:25 PM 3.2 °F -15.3 °F -4.0 °F 72% 30.15 in 1.0 mi West 15.0 mph 25.3 mph 0.00 in Snow Light Snow
4:31 PM 3.2 °F -13.1 °F -4.0 °F 72% 30.15 in 3.0 mi West 11.5 mph - 0.00 in Snow Light Snow
4:34 PM 3.2 °F -17.6 °F -4.0 °F 72% 30.16 in 0.5 mi West 19.6 mph 23.0 mph 0.00 in Snow Snow
4:49 PM 3.2 °F -15.3 °F -2.2 °F 78% 30.16 in 0.2 mi NW 15.0 mph - 0.00 in Snow Heavy Snow
4:53 PM 3.0 °F -14.8 °F -2.0 °F 80% 30.23 in 0.2 mi WNW 13.8 mph - 0.00 in Snow Snow
5:02 PM 3.2 °F -13.1 °F -2.2 °F 78% 30.17 in 0.5 mi WNW 11.5 mph - 0.00 in Snow Snow
5:31 PM 1.4 °F -16.9 °F -5.8 °F 72% 30.18 in 2.0 mi WNW 13.8 mph - 0.00 in Snow Light Snow
5:39 PM 1.4 °F -17.6 °F -5.8 °F 72% 30.18 in 3.0 mi WNW 15.0 mph - 0.00 in Snow Light Snow
5:46 PM 1.4 °F -15.3 °F -5.8 °F 72% 30.19 in 1.0 mi WNW 11.5 mph - 0.00 in Snow Light Snow
5:53 PM 1.9 °F -15.5 °F -4.0 °F 76% 30.26 in 1.0 mi WNW 12.7 mph 19.6 mph 0.00 in Snow Light Snow
6:12 PM 1.4 °F -16.9 °F -5.8 °F 72% 30.20 in 3.0 mi WNW 13.8 mph - 0.00 in Snow Light Snow
6:53 PM 1.0 °F -11.7 °F -5.1 °F 75% 30.29 in 7.0 mi West 6.9 mph - 0.00 in Snow Light Snow
7:53 PM -0.0 °F -9.9 °F -5.1 °F 79% 30.32 in 2.5 mi WSW 4.6 mph - 0.00 in Snow Light Snow
8:04 PM -0.4 °F -13.4 °F -5.8 °F 78% 30.25 in 1.8 mi West 6.9 mph - 0.00 in Snow Light Snow
8:16 PM 1.4 °F -9.9 °F -4.0 °F 78% 30.25 in 2.5 mi West 5.8 mph - 0.00 in Snow Light Snow
8:41 PM -0.4 °F -12.0 °F -5.8 °F 78% 30.26 in 4.0 mi West 5.8 mph - 0.00 in Snow Light Snow
8:53 PM -0.0 °F -11.6 °F -5.1 °F 79% 30.33 in 5.0 mi West 5.8 mph - 0.00 in   Overcast
9:40 PM -0.4 °F -8.3 °F -5.8 °F 78% 30.27 in 4.0 mi WSW 3.5 mph - 0.00 in Snow Light Snow
9:53 PM -2.0 °F -13.9 °F -7.1 °F 79% 30.34 in 7.0 mi WSW 5.8 mph - 0.00 in Snow Light Snow
10:44 PM -4.0 °F -16.3 °F -7.6 °F 85% 30.28 in 9.0 mi SW 5.8 mph - 0.00 in Snow Light Snow
10:53 PM -5.1 °F -20.4 °F -8.0 °F 87% 30.35 in 9.0 mi SSW 8.1 mph - 0.00 in Snow Light Snow
11:13 PM -4.0 °F -16.3 °F -7.6 °F 85% 30.28 in 6.0 mi SW 5.8 mph - 0.00 in Snow Light Snow
11:50 PM -5.8 °F -19.9 °F -9.4 °F 84% 30.29 in 5.0 mi SW 6.9 mph - 0.00 in Snow Light Snow
11:53 PM -5.1 °F -19.1 °F -9.9 °F 80% 30.37 in 5.0 mi SSW 6.9 mph - 0.00 in Snow Light Snow